Location: Mason Neck State Park
(38.6428°N, 77.1981°W)
Time: 07:46:29
(UTC-04:00)

ISS - Visible Passes

Search period start: 28 May 2016 00:00
Search period end: 07 June 2016 00:00
Orbit: 402 x 404 km, 51.6° (Epoch: 28 May)

Date Brightness Start Highest point End Pass type
(mag) Time Alt. Az. Time Alt. Az. Time Alt. Az.
28 May -0.3 03:06:03 10° NNW 03:08:23 18° NNE 03:10:42 10° ENE visible
28 May -3.5 04:41:53 10° NW 04:45:08 71° SW 04:48:22 10° SE visible
28 May -3.5 21:20:10 10° SW 21:23:24 76° SE 21:26:41 10° NE visible
28 May -0.2 22:57:54 10° WNW 23:00:11 17° NNW 23:02:27 10° NNE visible
29 May 0.1 02:13:45 10° NNW 02:15:22 13° NNE 02:16:59 10° NE visible
29 May -2.7 03:49:10 10° NW 03:52:23 56° NE 03:55:35 10° ESE visible
29 May -0.9 22:04:26 10° W 22:07:13 26° NNW 22:10:02 10° NNE visible
30 May 0.3 01:21:45 10° N 01:22:16 10° NNE 01:22:48 10° NNE visible
30 May -1.4 02:56:35 10° NW 02:59:33 31° NNE 03:02:29 10° E visible
30 May -2.4 04:33:07 10° WNW 04:35:55 26° SW 04:38:42 10° SSE visible
30 May -2.0 21:11:12 10° WSW 21:14:21 43° NW 21:17:29 10° NE visible
30 May 0.1 22:50:11 10° NW 22:51:27 12° NNW 22:52:45 10° N visible
31 May -0.5 02:04:06 10° NNW 02:05:59 19° N 02:05:59 19° N visible
31 May -0.2 21:56:19 10° WNW 21:58:24 16° NNW 22:00:29 10° NNE visible
01 Jun -0.1 01:11:45 10° NNW 01:13:35 14° NNE 01:13:35 14° NNE visible
01 Jun -0.6 21:02:45 10° W 21:05:25 23° NNW 21:08:05 10° NNE visible
02 Jun 0.0 00:19:34 10° N 00:20:31 11° NNE 00:21:29 10° NNE visible
02 Jun 0.1 21:48:43 10° NNW 21:49:42 11° NNW 21:50:40 10° N visible
03 Jun -0.2 01:02:09 10° NNW 01:03:03 15° NNW 01:03:03 15° NNW visible
04 Jun -0.4 00:09:44 10° NNW 00:11:45 16° NNE 00:11:45 16° NNE visible
04 Jun -0.2 23:17:28 10° N 23:18:44 12° NNE 23:20:01 10° NE visible
05 Jun -0.1 00:52:42 10° NW 00:53:06 13° NW 00:53:06 13° NW visible
06 Jun -0.8 00:00:10 10° NNW 00:01:57 22° N 00:01:57 22° N visible
06 Jun -0.9 23:07:43 10° NNW 23:09:58 17° NNE 23:10:50 16° NE visible
